Погода в Коннове

Россия / Нижегородская область     55°11′59″N   43°28′03″E
темп.,
°C
ветер,
м/с
пор.,
м/с
влажн.,
%
обл.,
%
осадки,
мм/ч
давл.,
гПа
погр.,
м
19 апреля, пн
пн1900:00+5всв6128561 0.0 1023488
03:00+4всв61285100 0.0 1024437
06:00+3всв71376100 0.0 1024481
09:00+5всв81164100 0.0 1025685
12:00+7всв91054100 0.0 10251178
15:00+8в91143100 0.0 10251499
18:00+7в71155100 0.0 10251308
21:00+5в81360100 0.0 1025842
20 апреля, вт
вт2000:00+4в71259100 0.0 1025683
03:00+3в71461100 0.0 1025547
06:00+2в71466100 0.0 1025634
09:00+4вюв81467100 0.0 1025895
12:00+4вюв81478100 0.1 1025891
15:00+7вюв71360100 0.3 10231110
18:00+8вюв81454100 0.0 1020833
21:00+7вюв101753100 0.0 1019994
21 апреля, ср
ср2100:00+6вюв101960100 0.1 1016983
03:00+4вюв112289100 5.9 1013913
06:00+4юв101989100 4.9 1011952
09:00+5юв101987100 5.0 1010929
12:00+6ююв111988100 0.1 10091135
15:00+8ю101779100 0.1 10101411
18:00+7ююз91581100 0.1 10131237
21:00+6ююз61279100 0.1 10161018
22 апреля, чт
чт2200:00+6ю498599 0.0 1017260
03:00+6ю4896100 0.9 1017288
06:00+6ююв5109346 0.8 1018447
09:00+9ююз7116537 0.9 10191190
12:00+9юз7117395 0.1 10201338
15:00+11ююз7106729 0.3 10201256
18:00+11ююз5107292 0.4 1021648
21:00+8ю410865 0.5 1022177
23 апреля, пт
пт2300:00+7ю411865 0.0 1022204
03:00+6ю498390 0.0 1023150
06:00+7ююв497997 0.0 1023196
09:00+11ююв6106593 0.0 1023454
12:00+15ю564178 0.0 10222235
15:00+15ююв564399 0.0 10202259
18:00+13юв5963100 0.0 1019325
21:00+11юв41071100 0.0 1019268